[[{"header":{"parameterUnit":"m.s-1","parameterCategory":1,"la1":30.2991,"la2":30.254,"lo1":-89.0895,"lo2":-89.0444,"dy":0.0017,"dx":0.0017,"nx":28,"ny":28,"refTime":"2025-05-19T03:00:00:Z","depth":0,"parameterNumber":2,"parameterNumberName":"U-component_of_WINDS"},"data":[0,0,0,0,0,0,0,0,0,0,0,0,0,0,0,0,0,0,0,0,0,0,0,0,0,0,0,0,0,0,0,0,0,0,0,0,0,0,0,0,0,0,0,0,0,0,0,0,0,0,0,0,0,0,0,0,0,0,1.2238,1.2238,0,1.2237,1.2237,1.2237,1.2202,1.2201,1.22,1.2199,1.2198,1.2199,1.22,0,0,0,0,0,0,0,0,0,0,0,0,0,1.2206,1.2207,1.2238,1.2238,1.2238,1.2237,1.2237,1.2237,1.2202,1.2201,1.22,1.2199,1.2198,1.2199,1.22,0,0,0,0,0,0,0,0,0,0,0,0,0,1.2214,1.2207,1.2238,1.222,1.2218,1.2237,1.2237,1.2237,1.2202,1.2201,1.22,1.2198,1.2198,1.2199,1.22,1.2236,0,0,1.2204,1.2205,0,0,0,0,0,0,0,0,1.2214,1.2216,1.2223,1.2221,1.222,1.2218,1.2226,1.2237,1.2203,1.2208,1.2199,1.2198,1.2206,1.2207,1.221,1.2236,1.2236,1.2204,1.2205,1.2206,1.2206,0,0,0,0,0,0,0,1.2213,1.2215,1.2237,1.2223,1.2221,1.2212,1.2211,1.2228,1.2215,1.2208,1.2205,1.2206,1.2205,1.2208,1.2209,1.2236,1.2204,1.2205,1.2206,1.2207,1.2289,1.229,0,0,0,0,0,0,1.2215,1.2215,1.2237,1.2237,1.2213,1.2213,1.2213,1.222,1.2215,1.2213,1.2207,1.2204,1.2207,1.2208,1.2209,1.2248,1.2206,1.2207,1.2208,1.2287,1.2289,1.229,0,0,0,0,0,0,1.2215,1.2218,1.2237,1.2226,1.2227,1.2215,1.2224,1.2221,1.2224,1.2214,1.2212,1.2213,1.2206,1.2207,1.2229,1.2248,1.2207,1.2209,1.2285,1.2288,1.229,1.2328,0,0,0,0,0,0,1.2214,1.2218,1.2232,1.2226,1.2228,1.2258,1.2225,1.2222,1.2226,1.2223,1.2219,1.2217,1.2205,1.2227,1.223,1.2249,1.221,1.2284,1.2286,1.2289,1.2325,1.2332,1.2337,0,0,0,0,0,1.2213,1.2243,1.2233,1.2235,1.2245,1.2259,1.226,1.2246,1.2228,1.2241,1.2235,1.2217,1.2246,1.223,1.2233,1.2252,1.2282,1.2286,1.2289,1.2323,1.233,1.2337,0,0,0,0,0,0,1.2251,1.2242,1.223,1.2259,1.226,1.2253,1.2269,1.2255,1.2261,1.2257,1.2239,1.2238,1.2262,1.226,1.2242,1.2285,1.2261,1.2265,1.2286,1.2293,1.2299,1.2298,1.2211,0,0,0,0,0,1.2263,1.2276,1.2267,1.2293,1.2294,1.2282,1.2287,1.2276,1.2276,1.2276,1.2271,1.2272,1.228,1.2287,1.2295,1.2325,1.2323,1.234,1.2346,1.2351,1.2354,1.2367,1.2374,1.2301,1.2301,1.2301,0,0,1.2288,1.2284,1.2293,1.2301,1.23,1.2312,1.2282,1.2297,1.2306,1.2279,1.2298,1.2294,1.2294,1.2319,1.233,1.2318,1.2374,1.2355,1.2359,1.2359,1.2371,1.2378,1.2385,1.2303,1.2303,1.2302,0,0,1.2338,1.2338,1.2358,1.2358,1.2357,1.2349,1.2354,1.2348,1.2345,1.2364,1.2343,1.2353,1.2369,1.2369,1.2371,1.242,1.2403,1.2423,1.2453,1.2466,1.2472,1.2477,1.2492,1.2498,1.2426,1.2427,1.2427,0,1.2369,1.2387,1.2371,1.2387,1.239,1.2365,1.2386,1.2386,1.2388,1.239,1.2377,1.2395,1.2393,1.2417,1.2429,1.2432,1.2436,1.2423,1.2473,1.2477,1.2482,1.2496,1.2502,1.2429,1.2429,1.2428,1.2428,0,1.2423,1.2436,1.2453,1.2454,1.2459,1.2477,1.2464,1.2471,1.2459,1.2451,1.247,1.2467,1.2473,1.2478,1.2467,1.25,1.2492,1.2476,1.2451,1.2491,1.2504,1.251,1.2432,1.2431,1.2431,1.243,0,0,1.2497,1.2489,1.2495,1.2495,1.2492,1.2501,1.2517,1.2522,1.2528,1.253,1.2542,1.2555,1.254,1.2542,1.2531,1.2543,1.2579,1.2525,1.2525,1.2533,1.2613,1.2624,1.263,1.2569,1.257,1.257,1.2612,0,1.2544,1.2571,1.2557,1.2586,1.2596,1.2573,1.2586,1.2586,1.2579,1.2586,1.2579,1.2588,1.2568,1.2569,1.258,1.2572,1.2594,1.2569,1.2578,1.2579,1.2577,1.2638,1.2649,1.2689,1.2617,1.2618,1.2619,0,1.2603,1.2606,1.2636,1.2628,1.2632,1.2645,1.2647,1.2655,1.2653,1.2647,1.2649,1.2635,1.2649,1.2625,1.2644,1.2627,1.263,1.2627,1.2628,1.2627,1.26,1.2636,1.2701,1.2707,1.2627,1.2627,1.2626,0,1.2651,1.2664,1.2682,1.2683,1.2675,1.2684,1.2682,1.2678,1.2682,1.2684,1.2686,1.269,1.2692,1.2696,1.2682,1.2666,1.2701,1.2677,1.2696,1.2696,1.2703,1.2702,1.2768,1.2708,1.2708,1.2708,1.2708,0,1.2704,1.2723,1.2703,1.2715,1.2734,1.2717,1.2737,1.2732,1.2729,1.2738,1.2718,1.2727,1.271,1.2716,1.2706,1.2722,1.2723,1.2718,1.2715,1.2719,1.2719,1.2719,1.2715,1.2709,1.2709,1.2709,1.2709,0,1.2761,1.2749,1.2767,1.2759,1.2757,1.2771,1.2763,1.2773,1.2765,1.2776,1.2778,1.2765,1.2772,1.2759,1.2765,1.2758,1.2779,1.2773,1.278,1.2777,1.2795,1.2793,1.2861,1.2869,1.2806,1.2807,1.2808,0,1.2795,1.2808,1.28,1.2805,1.2803,1.2811,1.2814,1.2798,1.2802,1.28,1.2809,1.2814,1.2817,1.2829,1.282,1.2824,1.2816,1.284,1.2816,1.2819,1.2814,1.2812,1.2813,1.2844,1.2845,1.2845,1.2846,0,1.2855,1.2848,1.2853,1.2856,1.286,1.2861,1.2861,1.2866,1.2849,1.2854,1.2861,1.2863,1.2868,1.2873,1.2874,1.2871,1.2855,1.2853,1.2857,1.2861,1.2863,1.286,1.2791,1.2851,1.2851,1.2851,1.285,1.285,1.29,1.2909,1.2905,1.2911,1.2909,1.2909,1.2917,1.2909,1.2915,1.2917,1.2907,1.2916,1.2912,1.2912,1.291,1.2915,1.2905,1.2911,1.2913,1.2914,1.2916,1.2864,1.2916,1.2916,1.2916,1.2916,1.2915,0,1.2957,1.2953,1.2958,1.2958,1.2962,1.2948,1.2946,1.2951,1.2958,1.2956,1.2959,1.2966,1.297,1.2961,1.2963,1.297,1.2962,1.2971,1.2969,1.2968,1.2926,1.2922,1.2976,1.2976,1.2976,1.2976,1.2976,1.2976,1.2987,1.3002,1.2994,1.3008,1.3004,1.3011,1.3011,1.3011,1.3009,1.3017,1.302,1.3014,1.3009,1.301,1.3013,1.301,1.3011,1.3022,1.3016,1.2977,1.2971,1.2965,1.2961,1.3023,1.3023,1.3057,1.3057,1.3058]},{"header":{"parameterUnit":"m.s-1","parameterCategory":1,"la1":30.2991,"la2":30.254,"lo1":-89.0895,"lo2":-89.0444,"dy":0.0017,"dx":0.0017,"nx":28,"ny":28,"refTime":"2025-05-19T03:00:00:Z","depth":0,"parameterNumber":3,"parameterNumberName":"V-component_of_WINDS"},"data":[0,0,0,0,0,0,0,0,0,0,0,0,0,0,0,0,0,0,0,0,0,0,0,0,0,0,0,0,0,0,0,0,0,0,0,0,0,0,0,0,0,0,0,0,0,0,0,0,0,0,0,0,0,0,0,0,0,0,3.0564,3.0565,0,3.068,3.0681,3.0682,3.067,3.0668,3.0666,3.0664,3.078,3.0785,3.079,0,0,0,0,0,0,0,0,0,0,0,0,0,3.033,3.0334,3.0564,3.0565,3.0567,3.068,3.0681,3.0683,3.067,3.0668,3.0665,3.0663,3.0779,3.0785,3.079,0,0,0,0,0,0,0,0,0,0,0,0,0,3.0437,3.0336,3.0564,3.0574,3.0576,3.0679,3.0681,3.0683,3.067,3.0668,3.0665,3.0662,3.0777,3.0784,3.0791,3.089,0,0,3.0813,3.0816,0,0,0,0,0,0,0,0,3.0431,3.0446,3.0571,3.0574,3.0576,3.0657,3.0641,3.0753,3.0671,3.0635,3.0664,3.0661,3.0742,3.0752,3.0779,3.0896,3.0901,3.0814,3.0818,3.0821,3.0823,0,0,0,0,0,0,0,3.0424,3.0441,3.061,3.0573,3.0576,3.0572,3.0584,3.0662,3.0702,3.0638,3.0637,3.0651,3.0742,3.0772,3.0782,3.0903,3.0814,3.082,3.0824,3.0827,3.1106,3.1109,0,0,0,0,0,0,3.0414,3.0434,3.0606,3.0613,3.0495,3.0579,3.0592,3.0634,3.0701,3.0709,3.0653,3.065,3.0761,3.0773,3.0786,3.0906,3.0821,3.0828,3.0832,3.1103,3.1106,3.111,0,0,0,0,0,0,3.0409,3.0429,3.0601,3.0524,3.0545,3.0586,3.0633,3.0638,3.0668,3.0713,3.072,3.0676,3.076,3.0776,3.0865,3.091,3.0831,3.0838,3.1099,3.1104,3.1108,3.1148,0,0,0,0,0,0,3.0402,3.0428,3.0466,3.0525,3.055,3.0679,3.0635,3.0642,3.068,3.0677,3.0737,3.0744,3.0759,3.0854,3.0872,3.0918,3.0843,3.1095,3.1101,3.1107,3.1143,3.1153,3.1162,0,0,0,0,0,3.0394,3.0473,3.0468,3.0489,3.0599,3.0682,3.0696,3.0712,3.0684,3.0723,3.0752,3.0742,3.0902,3.0863,3.0883,3.0933,3.1092,3.11,3.1106,3.1138,3.1151,3.1162,0,0,0,0,0,0,3.0418,3.048,3.0476,3.0577,3.0624,3.0679,3.0729,3.0725,3.0781,3.0776,3.0793,3.0806,3.0896,3.0923,3.0878,3.1032,3.0993,3.1005,3.1011,3.1023,3.1033,3.1024,3.0849,0,0,0,0,0,3.0435,3.0497,3.0548,3.0632,3.0656,3.0688,3.0725,3.0733,3.0783,3.0803,3.0838,3.0886,3.0947,3.0987,3.1045,3.1146,3.1159,3.119,3.12,3.1208,3.1217,3.1272,3.1287,3.1133,3.1132,3.1132,0,0,3.047,3.0512,3.0551,3.0638,3.0675,3.0739,3.0705,3.0774,3.0821,3.0813,3.0899,3.0927,3.0981,3.1076,3.112,3.1102,3.1263,3.1217,3.1223,3.1228,3.1281,3.1295,3.1308,3.1137,3.1136,3.1136,0,0,3.0568,3.0606,3.0679,3.0718,3.0776,3.0797,3.0815,3.0871,3.0889,3.0976,3.0971,3.1027,3.1132,3.117,3.1204,3.1316,3.1308,3.1334,3.1385,3.1439,3.1451,3.1461,3.1501,3.1515,3.1343,3.1344,3.1344,0,3.0604,3.0701,3.0717,3.0787,3.0825,3.0821,3.0895,3.0932,3.1005,3.1031,3.101,3.1142,3.1178,3.1282,3.1309,3.1337,3.1356,3.1327,3.1448,3.1459,3.1469,3.1507,3.1521,3.1346,3.1346,3.1346,3.1345,0,3.0743,3.081,3.0862,3.0934,3.0978,3.1049,3.1076,3.1118,3.1123,3.1146,3.1234,3.1277,3.1345,3.137,3.1375,3.1475,3.1461,3.1444,3.1405,3.1486,3.1522,3.1536,3.135,3.1349,3.1348,3.1348,0,0,3.0858,3.0939,3.0957,3.099,3.1053,3.1105,3.1176,3.1242,3.1278,3.1329,3.1388,3.1477,3.1461,3.1499,3.1508,3.1555,3.164,3.1532,3.1533,3.155,3.1752,3.1764,3.178,3.1636,3.1638,3.1641,3.1747,0,3.0961,3.1088,3.1105,3.1216,3.1278,3.1275,3.1336,3.1381,3.1405,3.146,3.1485,3.1548,3.1522,3.1545,3.1591,3.162,3.1681,3.1612,3.169,3.1693,3.1676,3.1799,3.1813,3.1911,3.1761,3.1763,3.1765,0,3.1098,3.1154,3.1272,3.1326,3.1353,3.1408,3.147,3.1523,3.1574,3.1587,3.163,3.1633,3.1705,3.1664,3.1764,3.1717,3.175,3.1768,3.1773,3.178,3.1733,3.1809,3.1943,3.1957,3.1787,3.1785,3.1784,0,3.117,3.1274,3.1358,3.1386,3.1452,3.1491,3.152,3.1568,3.1607,3.166,3.1686,3.1747,3.178,3.1827,3.1847,3.1815,3.1945,3.1905,3.1957,3.1957,3.1985,3.1982,3.2124,3.2007,3.2006,3.2006,3.2006,0,3.1283,3.1355,3.1391,3.1442,3.1523,3.1541,3.162,3.1647,3.169,3.1746,3.1747,3.18,3.1823,3.1878,3.1894,3.1973,3.1989,3.2001,3.2004,3.2001,3.1999,3.2022,3.2015,3.201,3.2009,3.2008,3.2008,0,3.1376,3.1403,3.1494,3.155,3.1565,3.1622,3.1669,3.1718,3.1741,3.1812,3.183,3.1865,3.1931,3.1955,3.2035,3.2045,3.2137,3.2135,3.212,3.2121,3.2171,3.2166,3.2333,3.2355,3.2223,3.2224,3.2225,0,3.1446,3.1502,3.1563,3.1601,3.1632,3.1693,3.1733,3.1753,3.1794,3.1856,3.1898,3.1963,3.2017,3.2122,3.2154,3.2215,3.2214,3.2268,3.2223,3.2218,3.2214,3.221,3.2216,3.2276,3.2277,3.2279,3.2279,0,3.1568,3.1578,3.1636,3.1698,3.1746,3.1796,3.1844,3.1875,3.1902,3.1948,3.2016,3.2057,3.2139,3.2204,3.2266,3.2295,3.2292,3.2294,3.2309,3.2306,3.2295,3.2301,3.2143,3.2289,3.2288,3.2288,3.2287,3.2287,3.1651,3.17,3.1751,3.1815,3.1854,3.1899,3.1948,3.1977,3.2034,3.2103,3.2111,3.2183,3.2232,3.2316,3.2348,3.2404,3.2389,3.2411,3.2417,3.2422,3.2425,3.2286,3.2415,3.2415,3.2415,3.2415,3.2414,0,3.1772,3.1805,3.1863,3.1931,3.1982,3.1975,3.2028,3.207,3.2134,3.218,3.2233,3.2311,3.2373,3.2411,3.2474,3.2511,3.2511,3.2527,3.2524,3.2531,3.2435,3.2415,3.2526,3.2526,3.2526,3.2526,3.2526,3.2526,3.1841,3.1923,3.194,3.2041,3.2073,3.2145,3.2176,3.2217,3.2254,3.234,3.2393,3.2417,3.246,3.2526,3.2583,3.2592,3.2615,3.2632,3.264,3.2549,3.2538,3.2527,3.2508,3.2637,3.2637,3.2731,3.2732,3.2732]}]]